Location: Atbuku
(36.4936°N, 30.4362°E)
Time: 09:44:05
(UTC+00:00)

IRS-P3 - Pass Details

Date: 20 March 2026
Orbit: 810 x 816 km, 99.0° (Epoch: 20 April)

Event Time Altitude Azimuth Distance (km) Brightness Sun altitude
Rises 16:31:09 0° 174° (S) 3,326 7.2 -5.1°
Reaches altitude 10° 16:33:30 10° 177° (S) 2,398 6.5 -5.6°
Maximum altitude 16:38:45 62° 258° (WSW) 912 4.8 -6.6°
Drops below altitude 10° 16:44:02 10° 339° (NNW) 2,411 7.0 -7.7°
Sets 16:46:25 0° 343° (NNW) 3,346 7.6 -8.1°
